Presure
176 147 148 132 135 154 165 185 172 164 170 178 157 180 177 165 166 180 185 152 169 161 164 192 183 194 206 220 236 230 266 221 260 246 261 272 249 242 270 297 255 344 352 284 256
143 127 170 168 169 164 175 112 144 185 178 190 186 163 163 162 159 161 169 172 180 172 190 180 178 165 192 200 209 221 227 263 229 262 262 248 260 268 274 262 294 276 305 354 297
171 116 175 162 126 160 147 139 172 134 188 151 152 169 129 144 185 179 188 178 168 185 184 177 187 186 192 185 200 210 224 220 251 214 255 262 256 259 256 275 259 294 282 272 349
122 161 167 171 183 131 139 162 162 173 141 186 181 178 147 135 168 156 165 180 172 173 183 168 183 187 185 183 170 199 210 223 227 260 233 256 258 263 256 245 250 254 287 231 264
131 159 114 172 122 157 157 120 142 139 147 173 165 152 146 150 172 180 134 182 134 140 156 183 170 187 144 193 188 193 208 216 224 195 247 250 252 253 257 253 243 246 247 279 268
134 115 150 118 147 111 133 105 155 155 148 129 165 146 167 131 170 144 177 125 152 168 161 166 169 177 183 190 193 190 202 225 227 250 236 248 252 255 252 258 265 257 277 251 275
148 116 127 145 171 118 128 171 179 150 127 168 167 133 143 131 129 150 175 157 168 172 159 173 152 175 182 186 192 212 237 230 238 253 244 243 250 248 150 254 267 232 263 286 271
126 161 123 173 118 125 103 117 121 135 120 148 146 126 148 129 119 155 141 134 148 140 174 126 171 174 152 184 189 203 199 227 216 249 178 243 244 248 246 249 262 269 284 319 283
121 146 119 96 110 127 118 111 114 131 147 122 127 150 141 125 152 148 118 133 133 176 159 166 174 163 175 176 184 193 204 204 233 234 254 244 244 192 243 244 256 263 260 328 304
129 158 154 143 127 122 117 108 101 112 123 120 138 121 140 149 114 153 156 137 136 143 133 155 155 169 172 170 183 188 196 202 248 207 250 245 247 236 244 244 253 266 285 338 305
150 112 109 117 144 164 137 116 99 135 132 105 114 118 121 111 96 133 117 123 110 160 167 164 159 135 115 181 174 186 197 204 195 249 248 251 249 235 246 249 248 256 279 333 316
127 131 130 105 109 150 116 114 127 132 118 106 101 112 126 134 129 111 152 109 134 132 156 161 140 135 132 177 176 188 198 194 201 229 261 237 226 216 246 248 252 260 257 252 314
134 132 143 156 145 151 109 135 167 157 136 110 110 118 113 117 113 111 134 116 130 115 132 125 147 117 160 161 166 181 192 198 205 203 248 254 227 244 249 243 249 252 248 255 289
142 157 147 121 122 116 111 148 122 119 159 99 125 130 109 120 127 110 116 134 133 126 135 133 141 166 119 180 176 170 185 199 221 195 224 252 234 238 244 245 239 258 256 248 260
119 120 116 163 133 111 105 147 165 134 119 156 132 134 102 125 121 126 135 118 128 125 134 167 123 161 134 182 176 170 182 191 196 204 194 247 239 224 227 223 231 240 250 250 251
128 149 136 135 114 150 124 119 140 160 141 149 125 121 124 164 122 130 124 121 141 99 101 129 145 144 173 181 174 196 186 184 216 199 250 244 237 237 228 224 229 219 251 252 251
119 120 142 154 125 118 141 141 131 118 129 162 109 166 123 130 125 149 115 130 127 125 122 140 130 139 153 122 164 187 180 182 222 201 247 244 245 236 226 228 225 226 238 247 247
128 132 102 143 121 134 125 156 154 140 160 120 123 125 138 139 156 144 139 95 133 155 139 117 121 118 188 158 187 184 175 195 207 209 246 242 234 230 220 222 221 221 214 250 254
104 99 151 155 122 126 144 118 128 152 168 118 121 114 112 120 154 139 120 141 135 150 126 98 104 136 136 135 187 127 178 205 207 247 242 247 236 232 218 221 218 223 221 216 260
129 91 108 99 124 152 128 122 117 166 124 104 116 122 120 123 164 141 118 137 133 101 135 103 126 114 150 116 189 170 176 211 210 233 248 243 241 235 220 223 218 215 217 229 219
115 126 130 95 140 112 125 123 129 147 119 115 120 121 142 155 156 98 142 132 146 149 105 98 142 141 185 181 175 181 203 199 203 220 210 231 246 237 230 220 219 211 224 227 211
132 130 113 130 139 122 129 157 124 132 130 117 162 124 119 132 163 131 129 106 120 165 142 160 110 140 106 188 178 175 177 205 204 204 239 213 236 240 220 224 218 218 219 219 220
116 114 135 111 135 115 129 119 146 143 144 126 117 164 134 118 138 138 140 134 147 125 124 142 154 123 138 175 197 190 205 203 203 199 237 236 223 242 226 219 225 212 217 214 221
133 131 119 117 138 142 132 125 138 126 119 136 125 127 127 135 136 138 134 129 174 144 170 134 111 108 195 140 191 181 207 205 201 199 239 231 220 229 234 230 221 220 220 226 214
141 131 134 131 159 148 170 147 154 125 117 122 120 136 132 131 125 136 142 152 131 131 132 141 180 184 172 183 166 191 200 206 198 247 237 233 223 234 229 226 223 220 228 223 222
136 143 130 126 112 157 158 155 149 111 112 145 136 132 132 123 139 151 125 153 135 133 121 98 184 181 160 168 189 188 205 195 209 208 228 242 219 219 231 220 220 223 221 220 224
120 143 117 158 138 119 135 133 143 111 135 133 164 117 141 142 144 141 134 145 154 139 188 161 103 188 173 193 203 198 198 202 204 237 223 229 224 224 231 232 218 219 219 226 240
Wind_Speed
40 35 33 27 28 35 36 41 35 34 33 36 30 38 36 29 33 43 48 36 34 39 39 48 42 52 60 62 59 50 41 35 36 26 25 21 19 27 12 16 32 29 38 55 61
33 28 36 34 31 37 34 14 28 41 34 43 42 34 38 25 30 31 32 32 43 34 50 41 40 44 56 61 66 62 53 42 37 33 29 21 20 18 17 14 16 14 20 29 56
34 21 33 29 17 34 29 36 28 22 39 31 31 37 21 33 43 40 48 45 34 49 47 41 53 51 59 50 65 68 63 54 47 40 38 34 25 22 14 27 15 18 14 16 23
21 31 30 28 35 20 20 21 20 27 31 41 38 36 35 38 29 25 28 43 33 38 48 36 48 54 50 50 51 65 67 63 56 44 45 38 37 35 23 15 14 13 22 39 21
18 27 9 28 15 22 28 10 35 34 36 21 22 23 26 31 30 41 41 43 45 44 32 49 37 54 49 61 55 63 70 66 61 36 44 41 38 35 36 28 19 19 18 20 22
27 11 22 15 24 13 31 13 18 29 26 34 22 29 22 37 28 40 40 37 41 44 34 41 32 45 52 61 63 56 66 68 64 50 46 42 42 39 37 36 37 29 27 20 24
18 20 25 16 16 11 28 19 31 25 35 29 14 33 31 36 34 26 42 26 37 42 32 47 38 47 56 61 67 77 83 76 69 52 45 43 44 44 24 42 42 28 30 23 24
8 14 19 17 12 26 9 16 26 31 25 10 15 35 19 36 36 33 35 43 38 43 50 45 50 54 47 65 71 78 73 89 78 62 34 46 44 45 42 43 47 43 36 31 29
11 9 9 16 2 24 16 10 19 29 22 32 30 28 26 36 29 27 39 37 43 54 47 50 59 51 63 64 73 77 74 77 76 70 52 51 47 31 49 47 48 47 33 28 31
11 5 5 6 13 18 17 10 11 20 25 27 20 29 22 27 32 33 33 36 40 42 44 48 52 62 62 61 72 76 76 75 76 73 57 53 51 48 50 50 54 54 44 27 29
3 2 8 9 5 9 8 14 15 15 17 18 25 28 30 27 13 34 36 38 35 46 53 52 54 50 33 74 66 77 79 81 74 69 57 53 53 46 48 51 52 53 57 30 28
9 6 4 12 10 9 9 11 15 15 17 18 17 24 26 30 32 31 38 30 41 43 51 53 50 50 45 71 73 80 83 79 78 96 55 58 57 57 52 52 55 60 49 40 27
4 3 6 12 11 11 13 15 22 23 19 19 22 25 27 30 24 33 38 38 43 36 46 47 51 46 66 68 70 77 84 84 80 80 72 56 59 55 55 52 56 55 52 50 40
12 9 4 7 8 10 17 15 15 18 25 19 23 27 29 31 33 35 38 41 45 45 53 51 58 62 44 76 75 69 83 86 98 78 97 61 63 58 58 56 56 61 57 51 49
12 9 14 14 14 17 22 18 24 21 20 27 25 28 29 33 34 37 42 39 44 47 54 63 46 60 61 77 75 71 83 88 87 83 78 68 64 64 61 60 60 61 58 58 54
7 14 13 14 24 18 21 17 21 28 25 29 27 30 35 41 39 43 41 40 49 27 33 54 61 63 74 77 75 87 84 84 98 84 73 70 67 62 66 60 63 53 64 61 59
15 15 17 23 16 19 21 25 24 25 28 37 36 42 35 42 42 45 41 48 43 44 49 55 52 62 66 56 76 87 82 85 106 86 81 72 65 65 66 65 64 67 58 64 63
15 16 22 20 21 21 22 29 33 28 39 30 33 34 40 41 46 47 49 24 54 59 58 56 47 45 89 74 90 88 82 93 100 91 85 77 70 66 67 67 67 69 56 62 61
28 23 27 30 25 25 26 29 33 35 45 31 33 38 40 41 49 49 44 49 55 61 55 31 48 65 63 70 93 64 88 98 106 93 84 72 72 67 65 67 65 68 66 64 59
25 14 24 29 27 34 28 32 35 45 38 44 39 38 41 43 57 50 46 54 55 36 61 34 65 64 77 57 99 86 91 110 115 106 81 75 72 69 63 66 66 66 69 78 64
36 29 31 26 32 32 32 34 38 42 39 42 41 45 52 59 59 41 55 51 63 66 56 44 70 76 95 96 93 98 104 99 105 115 101 90 77 71 67 64 66 64 74 77 65
31 32 40 33 35 36 34 49 40 42 44 44 60 47 45 53 67 49 48 54 56 77 67 80 62 74 44 98 99 97 98 113 114 112 92 96 79 79 70 70 69 70 70 71 73
39 40 37 39 38 44 41 43 49 52 51 48 48 68 58 52 61 59 62 60 69 58 72 76 84 71 77 93 100 104 112 116 120 108 93 89 90 81 74 70 72 67 74 71 75
48 41 46 47 45 51 43 49 50 48 49 55 53 58 57 61 63 63 62 58 91 73 92 71 68 65 100 77 101 105 129 119 116 115 91 94 91 87 86 79 73 74 74 80 70
51 48 46 47 61 59 65 59 61 53 50 52 55 64 63 60 60 67 74 78 68 67 69 77 98 98 93 101 97 117 126 123 121 96 97 92 95 89 88 83 81 79 84 79 79
53 54 52 53 50 64 64 63 62 49 53 67 64 63 64 60 70 78 61 83 73 71 67 36 102 99 97 102 103 109 131 111 119 135 105 91 93 92 90 86 85 84 83 83 87
52 59 52 69 59 57 62 61 64 53 63 60 80 59 73 74 74 75 70 81 87 74 101 92 49 102 103 108 120 128 118 116 127 102 103 98 95 94 89 88 84 87 87 93 104
Wind_Direction
88 91 91 89 85 73 85 92 77 65 68 76 67 72 69 39 36 55 51 25 22 11 8 40 28 34 33 32 30 26 26 9 17 6 6 353 310 292 315 350 259 259 248 243 243
99 94 81 75 74 85 84 60 61 85 80 75 71 60 56 33 30 24 28 37 37 20 37 24 20 4 29 28 26 24 22 23 8 15 10 343 351 351 358 298 345 269 270 257 243
102 96 99 91 100 75 83 58 84 51 73 43 33 57 41 45 52 49 45 39 25 37 34 26 29 26 26 20 22 20 20 16 18 354 12 8 353 342 319 358 327 339 309 270 270
91 74 91 90 94 78 56 73 70 77 54 63 64 60 21 30 44 19 31 37 34 30 31 13 26 24 20 16 10 17 17 17 15 18 7 11 8 4 346 306 327 312 323 261 264
100 83 111 90 130 69 61 95 43 40 42 101 56 27 32 14 43 42 17 33 16 8 356 26 11 21 4 19 14 14 14 13 13 4 13 11 10 7 1 342 305 298 281 296 271
78 127 69 93 49 66 57 27 77 52 61 37 54 25 55 28 41 17 33 18 23 22 4 11 10 14 15 14 14 11 11 11 13 13 9 9 10 8 0 354 344 322 321 285 263
82 72 71 62 105 86 48 91 63 44 33 49 62 17 15 22 11 359 26 359 18 17 357 11 343 10 10 10 9 9 15 10 10 12 12 8 8 4 322 359 351 302 319 288 271
131 114 73 94 70 44 10 43 36 28 31 40 5 20 350 13 14 19 359 5 359 2 11 5 5 5 350 7 7 7 5 11 10 7 0 8 5 2 359 354 352 344 339 282 257
84 80 19 14 18 32 38 35 29 16 24 14 14 20 12 4 359 354 3 4 2 12 3 2 4 357 2 3 3 3 5 4 5 5 5 7 6 340 357 353 354 348 332 295 262
61 92 72 33 22 31 31 16 1 23 8 10 350 3 8 356 2 4 360 349 354 353 355 357 356 360 358 356 1 360 360 1 7 357 2 3 3 359 356 351 354 354 348 303 264
41 3 330 34 357 12 345 11 351 7 340 6 1 356 349 358 354 345 350 348 355 357 360 358 354 347 360 357 355 358 356 360 355 2 0 2 360 358 357 353 351 355 359 332 280
54 49 30 338 333 349 337 347 344 326 346 353 349 348 338 337 340 349 353 356 346 350 355 353 348 348 357 354 353 356 355 354 354 5 359 1 358 354 357 356 353 353 356 355 316
68 332 340 346 342 344 319 342 360 356 322 337 336 335 336 334 332 340 338 344 343 347 346 347 349 348 349 351 353 353 353 350 355 355 359 357 355 355 358 359 353 351 349 354 349
313 322 303 256 267 287 319 300 324 324 348 339 324 335 333 326 328 340 334 342 343 341 344 344 346 348 354 351 348 347 351 349 356 347 358 357 357 358 354 358 360 355 352 348 354
219 250 258 328 297 294 319 309 343 307 320 333 313 314 340 321 325 329 333 333 340 340 340 342 345 341 340 347 346 344 348 348 346 350 344 357 355 352 352 352 0 359 355 353 350
253 300 293 292 316 314 302 304 311 334 306 320 314 313 323 340 322 329 333 332 335 342 346 340 337 340 343 343 343 346 347 349 355 347 352 354 355 352 349 354 354 352 352 350 350
259 265 294 307 288 289 307 311 306 301 306 330 319 333 318 330 323 328 326 330 330 332 332 334 339 338 340 349 340 344 344 345 356 346 349 350 351 350 349 353 352 353 347 345 345
269 278 311 293 282 285 285 316 321 303 324 303 307 314 316 319 328 322 321 308 328 330 332 328 332 337 339 337 340 341 342 346 350 348 350 346 353 349 347 349 352 350 343 339 338
285 299 293 299 279 284 299 286 300 316 321 294 304 303 312 315 323 316 323 321 327 326 326 330 327 334 332 330 339 338 342 348 349 350 350 343 348 345 345 348 347 347 347 345 342
259 308 298 309 291 306 282 284 291 316 299 303 301 305 306 308 325 316 316 324 326 321 328 323 326 329 331 335 336 335 339 351 351 350 347 346 342 344 343 344 344 341 343 344 342
271 268 287 298 294 291 283 287 295 310 291 293 296 299 312 318 321 320 319 323 324 324 324 315 327 326 333 333 334 335 342 343 346 349 344 345 338 341 344 341 342 338 342 339 336
266 270 280 276 298 281 285 309 288 296 295 293 315 301 304 307 321 316 315 314 315 323 324 324 326 327 327 331 330 331 333 344 346 346 342 341 341 336 341 341 338 338 338 337 336
272 274 279 282 284 284 288 286 303 302 301 295 303 317 303 308 313 317 318 320 320 321 317 321 322 319 325 330 336 329 340 341 343 341 341 338 339 333 336 337 336 333 334 331 334
274 268 273 275 284 291 282 290 292 289 295 303 302 301 304 308 313 316 320 316 318 323 320 321 320 314 329 327 332 327 339 340 342 338 339 335 337 334 333 332 333 331 331 331 328
275 270 273 273 291 291 295 296 299 291 297 299 299 299 304 309 308 314 318 315 320 316 319 322 321 324 326 326 327 331 335 337 336 333 337 334 333 333 330 330 331 330 330 329 329
267 273 269 270 288 290 294 296 290 297 301 295 298 302 305 304 311 309 316 313 322 319 309 309 319 320 320 323 326 325 333 332 336 335 333 331 331 330 327 327 327 327 327 326 325
274 275 279 284 278 285 279 282 289 296 294 297 300 303 301 305 309 312 316 316 314 311 314 315 313 318 319 326 333 331 330 331 334 329 329 331 326 326 324 323 323 324 323 323 321